Regional Weather Roundup
Issued by NWS

Home | Current Version | Previous Version | Graphics & Text | Print | Product List | Glossary Off
Versions: 1 2 3 4 5 6 7 8 9 10 11 12 13 14 15 16 17 18 19 20 21 22 23 24 25 26 27 28 29 30 31 32 33 34 35 36 37 38 39 40 41 42 43 44 45 46 47 48 49 50

000
ASUS43 KMKX 261600
RWRWI

WISCONSIN REGIONAL WEATHER ROUNDUP
NATIONAL WEATHER SERVICE MILWAUKEE/SULLIVAN WI
1000 AM CST FRI DEC 26 2014

NOTE: "FAIR" INDICATES FEW OR NO CLOUDS BELOW 12,000 FEET WITH NO
SIGNIFICANT WEATHER AND/OR OBSTRUCTIONS TO VISIBILITY.

WIZ001-002-006>008-014>016-023>028-261700-
NORTHWEST WISCONSIN

CITY           SKY/WX    TMP DP  RH WIND       PRES   REMARKS
SUPERIOR ARPT  MIX PCPN  30  25  82 N3        30.06R
ASHLAND        FLURRIES  31  28  89 N7        30.04R WCI  24
HAYWARD        CLOUDY    30  27  88 N6        30.00R WCI  24
SIREN          LGT SNOW  29  28  96 N9        30.02R WCI  21
CUMBERLAND     LGT SNOW  30  28  93 N8        29.97R WCI  23
RICE LAKE      LGT SNOW  32  30  92 N8        29.99R WCI  25
CHETEK         CLOUDY    32  30  94 NW3       29.97R FOG
LADYSMITH      LGT SNOW  32  30  94 N8        29.97S WCI  25
EAU CLAIRE     CLOUDY    33  29  85 NE5       29.96R WCI  29
MENOMONIE      CLOUDY    33  31  93 N5        29.97R FOG     WCI  29
NEW RICHMOND   CLOUDY    32  31  98 N9        29.99R FOG     WCI  24
OSCEOLA        FLURRIES  31  31 100 N7        30.03R WCI  24
$$

WIZ003>005-009-010-017-018-261700-
NORTH CENTRAL WISCONSIN

CITY           SKY/WX    TMP DP  RH WIND       PRES   REMARKS
MANITOWISH WTR LGT SNOW  28  28 100 N3        29.96R
ARBOR VITAE    LGT SNOW  32  30  93 CALM      29.95R
WOODRUFF       LGT SNOW  32  30  93 CALM      29.95R
RHINELANDER    CLOUDY    30  28  92 NE5       29.95R FOG     WCI  25
EAGLE RIVER    CLOUDY    30  29  99 CALM      29.94S FOG
LAND O LAKES   CLOUDY    29  28  98 CALM      29.96R FOG
PHILLIPS       LGT SNOW  29  28  95 N6        29.94S WCI  23
TOMAHAWK       CLOUDY    31  29  93 CALM      29.95R FOG
MEDFORD        CLOUDY    30  29  97 NE5       29.93R FOG     WCI  25
MERRILL        CLOUDY    30  30 100 E3        29.94S FOG
$$

WIZ029-030-035-036-043>047-261700-
CENTRAL WISCONSIN

CITY           SKY/WX    TMP DP  RH WIND       PRES   REMARKS
WAUSAU         CLOUDY    30  30 100 CALM      29.94R FOG
MOSINEE        FOG       28  28 100 NE3       29.95R VSB 1/4
MARSHFIELD     MOSUNNY   32  30  92 NE3       29.94R FOG
STEVENS POINT  SUNNY     28  28  99 CALM      29.95R
WAUPACA        FOG       30  29  96 CALM      29.97R VSB 1/4
WAUTOMA        NOT AVBL
WISC RAPIDS    SUNNY     36  32  85 S5        29.96R WCI  32
CAMP DOUGLAS   NOT AVBL
$$

WIZ011>013-019>022-031-037>040-048>050-261700-
NORTHEAST WISCONSIN

CITY           SKY/WX    TMP DP  RH WIND       PRES   REMARKS
ANTIGO         FOG       29  29 100 E3        29.94S VSB 1/4
SHAWANO        FOG       31  29  94 CALM      29.98R VSB<1/4
OCONTO         SUNNY     32  32 100 CALM      29.99R
STURGEON BAY   MOSUNNY   37  34  87 SW5       30.00R WCI  34
GREEN BAY      SUNNY     37  35  92 S5        29.98R WCI  33
MANITOWOC      NOT AVBL
APPLETON       MOSUNNY   36  36 100 VRB3      29.98R
CLINTONVILLE   FOG       30  30 100 NE3       29.97S VSB<1/4
OSHKOSH        SUNNY     39  34  82 S8        29.97R WCI  33
$$

WIZ032>034-041-042-053>061-261700-
SOUTHWEST WISCONSIN

CITY           SKY/WX    TMP DP  RH WIND       PRES   REMARKS
LA CROSSE      SUNNY     34  30  85 NW3       29.95R
SPARTA         SUNNY     31  30  97 CALM      29.95R
VIROQUA        SUNNY     37  34  89 S7        29.93R WCI  32
BOSCOBEL       SUNNY     37  33  85 CALM      29.96R
PRAIRIE DU CHI SUNNY     36  32  85 CALM      29.95R
PLATTEVILLE    MOSUNNY   38  35  87 CALM      29.96R
$$

WIZ056-057-062-063-064-067-068-261700-
SOUTH CENTRAL WISCONSIN

CITY           SKY/WX    TMP DP  RH WIND       PRES   REMARKS
REEDSBURG      SUNNY     38  34  84 S3        29.94R
BARABOO/DELLS  SUNNY     41  33  72 SW9       29.94R
LONE ROCK      NOT AVBL
MINERAL POINT  SUNNY     37  34  87 S5        29.95R WCI  34
MADISON        PTSUNNY   40  34  79 S8        29.97R WCI  34
MIDDLETON      SUNNY     40  34  79 S8        29.97R
WATERTOWN      SUNNY     39  36  89 S7        29.98R WCI  34
MONROE         MOSUNNY   36  34  93 S13       29.96R WCI  27
JANESVILLE     SUNNY     39  36  87 S6        29.99R WCI  35
$$

WIZ051-052-058>065-066-070>072-261700-
SOUTHEAST WISCONSIN

CITY           SKY/WX    TMP DP  RH WIND       PRES   REMARKS
MILWAUKEE      PTSUNNY   41  33  73 SW9       30.00R
WAUKESHA       SUNNY     37  34  87 SW14G21   30.00R WCI  29
MILWAUKEE/TIMM SUNNY     41  34  75 SW12      30.01R
RACINE         MOSUNNY   41  34  76 SW9       30.02R
BURLINGTON     MOSUNNY   37  33  87 S9        30.00R WCI  30
KENOSHA        MOSUNNY   42  36  79 SW12      30.00R
FOND DU LAC    SUNNY     41  34  76 SW12      29.97R
SHEBOYGAN      SUNNY     40  35  83 SW7       29.98R
WEST BEND      SUNNY     41  34  75 SW10      29.98R
JUNEAU         SUNNY     37  35  89 S8        29.98R WCI  31
$$

LSZ147-162-261700-
LAKE SUPERIOR

STATION/POSITION TIME  TEMP    WIND        PRES    WAVE
                       AIR SEA DIR/SP/G            HT/PER
                 (UTC) (F)     (DEG/KT/KT) (MB)    (FT/S)
DEVILS ISLAND    1500   32      10/ 13/ 14 1017.4R
PORT WING        1540   32      10/ 10/ 12 1017.6R
SAXON HARBOR     1540   34      10/  8/ 10 1016.9R
$$

LMZ867-665-643>646-261700-
LAKE MICHIGAN

STATION/POSITION TIME  TEMP    WIND        PRES    WAVE
                       AIR SEA DIR/SP/G            HT/PER
                 (UTC) (F)     (DEG/KT/KT) (MB)    (FT/S)
CHAMBERS ISLAND  1500   34        CALM     1014.9S
NORTHPORT PIER   1500   36        CALM     1014.9R
SISTER BAY       1413             CALM       N/A
ALGOMA LAKESHORE 1515          230/  6/  8   N/A
KEWAUNEE LAKESHO 1500   38     200/  6/  9 1014.0R
SHEBOYGAN LAKESH 1500   40 39  190/  9/ 11 1015.7R
PORT WASHINGTON  1540   44     190/  3/  6 1016.6R
MILWAUKEE LAKESH 1500   40     210/  8/ 10   N/A
KENOSHA   LAKESH 1500   40     230/  7/ 15 1016.3R
$$

TC  - TEMPERATURE IN CELSIUS
VSB - VISIBILITY IN STATUTE MILES
WCI - WIND CHILL INDEX
HX  - HEAT INDEX



USA.gov is the U.S. government's official web portal to all federal, state and local government web resources and services.